Current weather by "City, St" or "zip code"  
 

Current Conditions: Big Timber Airport, MT

A Few Clouds


59.0 F

Last Updated on Oct 21 2021, 11:55 am MDT
Humidity: 39%
Wind Speed: W 9.2 mph
Barometer 30.16 in
Dewpoint: 33.8 F
Visibility: 10.00 mi
Precip: --
Heat Index: NA
Wind Chill: 57 F
Current conditions at:

Big Timber Airport, MT (K6S0)

Lat: 45.80647 Lon: 109.97826

Local Radar Image active severe weather and emergency alerts image image weather storm and storm spotter reports image weather observation monitoring service image
Local
Radar
Active
Alerts
Storm Reports Obs
Monitoring

Sign-up For Email & Text Message Weather Alert Notification Services



Advertise Here

Observation History for Big Timber Airport, MT


Time Wind
(mph)
Vis
(mi)
Weather Precip (in) Temperature (F) Relative
Humidity
Wind
Chill
(F)
Heat
Index
(F)
Pressure
Air Dwpt altimeter
(in)
sea level
(mb)
Rmks
11:55 am MDT W 9.2 10.00 A Few Clouds -- 59.0 33.8 39% 57 NA 30.16 M
10:55 am MDT W 10.4 10.00 Overcast -- 55.0 33.8 44% 52 NA 30.17 M
9:55 am MDT W 11.5 10.00 Overcast -- 55.0 33.8 44% 52 NA 30.17 M
8:55 am MDT S 3.5 10.00 Overcast -- 48.0 35.6 62% NA NA 30.18 M
7:55 am MDT N 0.0 10.00 Overcast -- 45.0 33.8 66% NA NA 30.17 M
6:55 am MDT N 0.0 10.00 Overcast -- 45.0 33.8 66% NA NA 30.16 M
5:55 am MDT N 0.0 10.00 Overcast -- 45.0 33.8 66% NA NA 30.16 M
4:55 am MDT W 8.1 10.00 A Few Clouds -- 45.0 32.0 61% 41 NA 30.16 M
3:55 am MDT W 12.7 10.00 Fair -- 45.0 32.0 61% 39 NA 30.16 M
2:55 am MDT W 10.4 10.00 Fair -- 45.0 32.0 61% 40 NA 30.15 M
1:55 am MDT W 11.5 10.00 Fair -- 43.0 33.8 71% 37 NA 30.15 M
12:55 am MDT W 4.6 10.00 Fair -- 46.0 32.0 57% 44 NA 30.14 M
12:35 am MDT SW 4.6 10.00 Fair -- 48.0 32.0 54% 46 NA 30.14 M
11:55 pm MDT W 8.1 10.00 Fair -- 45.0 33.8 66% 41 NA 30.14 M
10:55 pm MDT W 11.5 10.00 Fair -- 46.0 33.8 62% 41 NA 30.13 M
9:55 pm MDT NE 5.8 10.00 Fair -- 39.0 33.8 81% 35 NA 30.13 M
8:55 pm MDT N 0.0 10.00 Fair -- 43.0 33.8 71% NA NA 30.11 M
7:55 pm MDT SE 6.9 10.00 Fair -- 48.0 35.6 62% 45 NA 30.10 M
6:55 pm MDT SE 5.8 10.00 Fair -- 48.0 35.6 62% 45 NA 30.08 M
5:55 pm MDT SE 5.8 10.00 Fair -- 50.0 35.6 58% 48 NA 30.07 M
4:55 pm MDT E 6.9 10.00 Fair -- 54.0 35.6 51% 52 NA 30.07 M
3:55 pm MDT 5.8 10.00 Fair -- 52.0 35.6 54% 50 NA 30.07 M
2:55 pm MDT E 6.9 10.00 Fair -- 48.0 35.6 62% 45 NA 30.08 M
1:55 pm MDT E 8.1 10.00 Fair -- 45.0 35.6 71% 41 NA 30.09 M

Regional Weather Observation


Livingston, Mission Field Airport, MT (KLVM)

Fair
61.0 F

Kilo - Harlowton, MT (K1KM)

Mostly Cloudy
57.0 F

Bozeman, Gallatin Field, MT (KBZN)

Fair
57.0 F

Laurel Municipal Airport, MT (K6S8)

NULL
63.0 F

Ennis - Big Sky Airport, MT (KEKS)

Fair
55.0 F

Billings, Billings Logan International Airport, MT (KBIL)

Mostly Cloudy
59.0 F

Advertise Here


Advertise Here